Location: Bear Valley Community Church - Hurst
(32.8460°N, 97.1828°W)
Time: 07:06:56
(UTC+00:00)

Cosmos 1515 Rocket - Pass Details

Date: 02 July 2022
Orbit: 604 x 631 km, 82.5° (Epoch: 09 August)

Event Time Altitude Azimuth Distance (km) Brightness Sun altitude
Rises 09:54:38 0° 346° (NNW) 2,891 7.4 -16.3°
Reaches altitude 10° 09:56:56 10° 340° (NNW) 1,978 6.4 -15.9°
Maximum altitude 10:01:06 46° 268° (W) 828 3.8 -15.3°
Enters shadow 10:03:29 23° 206° (SSW) 1,312 4.7 -14.9°
